星链-31276 (STARLINK-31276 )

导读

STARLINK-31276是美国太空探索技术公司SpaceX于2024年2月29日发射的星链卫星,星链项目旨在构建全球卫星互联网星座,为全球缺乏传统网络基础设施的偏远地区提供高速低延迟宽带服务。该卫星被部署到近地轨道,是星链扩张全球网络覆盖的一环,助力实现全球无处不在的高速互联。

Basic Information
目录编号:
59075
目录名称:
STARLINK-31276
国际标识:
2024-041B
轨道中心:
EARTH
卫星名称:
星链-31276
卫星全名:
星链-31276 (STARLINK-31276 )
卫星状态:
在轨 (已飞行918 天)
发射日期:
2024-02-29 UTC
国别 :
美国 (US)
星等 :
--
Orbit Information
数据来源 国际轨道数据
星历时间: 2026-09-04T02:50:03+0800
15小时前
查看轨道信息
半长轴: 6861.374km
偏心率: 0.0001111
轨道倾角: 43.005°
近地点辐角 269.087°
升交点赤经 24.509°
平近点角 90.985°
近地点: 482.474km
远地点: 484km
周期: 94.271分钟
每日圈数: 15.275173
Detailed Information
固有亮度:
5
最大亮度:
0.3
卫星平台:
Starlink v2.0 mini
覆盖范围:
全球
运营商:
太空探索技术公司
运营商所在国:
美国
制造商(研发单位):
太空探索技术公司
制造商所在国:
美国
使用方式:
暂无
Satellite Introduction
星链(Starlink)计划是由太空探索技术公司(SpaceX)提出的一个巨型低轨卫星互联网星座项目,计划在2019年至2024年间在太空搭建由约1.2万颗卫星组成的“星链”网络,其中1584颗将部署在地球上空550千米处的近地轨道,并从2020年开始工作。该卫星仍在工作。
2D Orbit Map
3D Orbit Map
Orbit Altitude Analysis Chart
Orbit Inclination Analysis Chart
Orbit Comprehensive Analysis Chart
View Comprehensive Chart
Conjunction Data List
Event ID Objects TCA Miss Dist (km) Collision Risk Probability Collision Risk Index (CRI) Action
CDM_260905-095105-907506-799621
2026-09-05T
09:51:01+0000
0.328 km
远距离
3.343036E-4 高风险 0.85
CDM_260906-145205-907506-799621
2026-09-06T
14:52:53+0000
0.378 km
远距离
2.588492E-4 高风险 0.83
CDM_260906-015205-907506-380421
2026-09-06T
01:52:55+0000
0.622 km
远距离
9.068902E-5 中风险 0.74
CDM_260906-160005-907506-391421
2026-09-06T
16:00:49+0000
0.818 km
远距离
3.925294E-5 中风险 0.67
CDM_260905-112505-907506-799621
2026-09-05T
11:25:11+0000
0.814 km
远距离
3.488917E-5 中风险 0.66
CDM_260906-131805-907506-799621
2026-09-06T
13:18:44+0000
0.927 km
远距离
2.258152E-5 中风险 0.62
CDM_260906-050005-907506-710621
2026-09-06T
05:00:32+0000
1.023 km
极远距离
1.87953E-5 中风险 0.6
CDM_260906-001805-907506-380421
2026-09-06T
00:18:46+0000
1.050 km
极远距离
1.702002E-5 中风险 0.6
CDM_260906-032705-907506-380421
2026-09-06T
03:27:05+0000
1.079 km
极远距离
1.547081E-5 中风险 0.59
CDM_260906-162705-907506-799621
2026-09-06T
16:27:03+0000
1.039 km
极远距离
1.52737E-5 中风险 0.59